Regional Weather Roundup
Issued by NWS Jackson, KY

Home | Current Version | Previous Version | Graphics & Text | Print | Product List | Glossary On
Versions: 1 2 3 4 5 6 7 8 9 10 11 12 13 14 15 16 17 18 19 20 21 22 23 24 25 26 27 28
000
ASUS43 KJKL 211310
RWRJKL

EAST KENTUCKY HOURLY WEATHER ROUNDUP
NATIONAL WEATHER SERVICE JACKSON KY
900 AM EDT MON MAY 21 2018

NOTE: "FAIR" INDICATES FEW OR NO CLOUDS BELOW 12,000 FEET WITH
NO SIGNIFICANT WEATHER AND/OR OBSTRUCTIONS TO VISIBILITY.

* THESE REPORTS ARE NOT UNDER NWS QUALITY CONTROL AND MAY NOT
  REPORT WEATHER SUCH AS PRECIPITATION AND FOG.

KYZ079-080-083-085-087-088-110-112-115-119-120-211400
...EASTERN KENTUCKY...

CITY           SKY/WX    TMP DP  RH WIND       PRES   REMARKS
JACKSON          N/A     71  65  81 SW3       30.18R
LONDON           N/A     72  66  81 CALM      30.18R
SOMERSET*        N/A     70  68  94 MISG      30.18R
MONTICELLO*      N/A     74  66  76 NE8       30.18R
WILLIAMSBURG*    N/A     70  70 100 SE5       30.18
MIDDLESBORO*   CLOUDY    65  65 100 CALM      30.21R FOG
HARLAN APT*    CLOUDY    65  64  96 CALM      30.21R
PIKE CO APT*     N/A     69  69 100 S3        30.19R
BIG SANDY APT*   N/A     73  67  83 S5        30.17S
MOREHEAD APT*    N/A     72  66  83 SE3       30.17R
ASHLAND*         N/A     71  66  84 CALM      30.15
$$

KYZ035-036-041-042-044-050-067-078-099-211400
...CENTRAL KENTUCKY...

CITY           SKY/WX    TMP DP  RH WIND       PRES   REMARKS
MT STERLING*     N/A     72  68  88 SW3       30.17
FLEMING/MASON*   N/A     72  67  85 CALM      30.17
DANVILLE*        N/A     72  63  73 SW5       30.18R
LEXINGTON        N/A     72  65  78 SW7       30.16R
FRANKFORT        N/A     73  65  75 SW7       30.14R
LOUISVILLE       N/A     74  66  76 S6        30.14R
LEBANON*         N/A     73  63  68 CALM      30.17R
GLASGOW*         N/A     71  66  83 CALM      30.16R
BOWLING GREEN    N/A     73  67  81 CALM      30.14R
$$

KYZ091>093-OHZ055-061-077-WVZ005-015-034-035-042-211400
...SOUTHERN OHIO/WEST VIRGINIA...

CITY           SKY/WX    TMP DP  RH WIND       PRES   REMARKS
COVINGTON      PTSUNNY   70  63  78 E5        30.14R
COLUMBUS       CLOUDY    65  57  75 E10G18    30.18S
DAYTON         PTSUNNY   66  61  84 E7        30.18R
WILMINGTON       N/A     65  62  90 E9        30.15F
HUNTINGTON       N/A     69  66  90 E3        30.14S
CHARLESTON       N/A     70  67  90 CALM      30.15S
PINEVILLE*       N/A     68  65  91 MISG      30.25S
BECKLEY          N/A     71  63  75 SE3       30.24R
BLUEFIELD      PTSUNNY   69  64  84 CALM      30.27R
LOGAN CO APT*    N/A     72  68  88 CALM      30.19
$$

VAZ002-007-008-TNZ017-027-036-066-071-211400
...SOUTHWEST VIRGINIA/EAST TENNESSEE...

CITY           SKY/WX    TMP DP  RH WIND       PRES   REMARKS
WISE*            N/A     72  64  78 CALM      30.26R
JONESVILLE*    PTSUNNY   68  66  94 CALM      30.23S
ABINGDON*        N/A     71  68  92 CALM      30.24R
BRISTOL          N/A     70  67  90 CALM      30.21R
MORRISTOWN*    PTSUNNY   72  66  83 SW3       30.20R
SEVIERVILLE*   PTSUNNY   72  66  83 CALM      30.19R
KNOXVILLE      PTSUNNY   71  66  84 CALM      30.18R
LAFOLLETTE*    SUNNY     70  66  88 NE3       30.22R
OAK RIDGE        N/A     73  68  84 VRB5      30.19R
CROSSVILLE       N/A     69  63  81 VRB5      30.20S
NASHVILLE        N/A     74  66  76 S6        30.13R
$$

...KEY TO REMARKS...
VSB - VISIBILITY IN MILES
WCI - WIND CHILL INDEX
HX  - HEAT INDEX

$$




USA.gov is the U.S. government's official web portal to all federal, state and local government web resources and services.